Weather History for EHGR - August, 2013

Change the Weather History Date:

Thursday, August 1, 2013

  Actual Average Record
Temperature  
Mean Temperature 76 °F -  
Max Temperature 89 °F 71 °F - ()
Min Temperature 64 °F 54 °F - ()
Cooling Degree Days 12    
Growing Degree Days 26 (Base 50)    
Moisture  
Dew Point 62 °F    
Average Humidity 62    
Maximum Humidity 88    
Minimum Humidity 36    
Precipitation  
Precipitation 0.00 in - - ()
Sea Level Pressure  
Sea Level Pressure 29.94 in    
Wind  
Wind Speed 7 mph ()    
Max Wind Speed 13 mph    
Max Gust Speed -    
Visibility 6.2 miles    
Events      
T = Trace of Precipitation, MM = Missing Value Source: Averaged Metar Reports

Daily Weather History Graph

Daily Weather History Graph

Search for Another Location

Airport or City:

Trip Planner

Search our weather history database for the weather conditions in past years. The results will help you decide how hot, cold, wet, or windy it might be!

Date:

Astronomy

Aug. 01, 2013 Rise Set
Actual Time 6:03 AM CEST 9:28 PM CEST
Civil Twilight 5:23 AM CEST 10:08 PM CEST
Nautical Twilight 4:28 AM CEST 11:02 PM CEST
Astronomical Twilight 3:11 AM CEST 12:18 AM CEST
Moon 1:26 AM CEST (8/1) 5:28 PM CEST (8/1)
Length of Visible Light 16h 45m
Length of Day
15h 24m
Waning Crescent, 25% of the Moon is Illuminated
Aug 1
Waning Crescent
Aug 6
New
Aug 14
First Quarter
Aug 21
Full
Aug 28
Last Quarter

Hourly Weather History & Observations

Time (CEST) Temp. Heat Index Dew Point Humidity Pressure Visibility Wind Dir Wind Speed Gust Speed Precip Events Conditions
12:25 AM 69.8 °F - 62.6 °F 78% 30.01 in 6.2 mi SSE 3.5 mph - N/A   Overcast
12:55 AM 69.8 °F - 62.6 °F 78% 30.01 in 6.2 mi South 6.9 mph - N/A   Overcast
1:25 AM 69.8 °F - 62.6 °F 78% 30.01 in 6.2 mi South 9.2 mph - N/A   Overcast
1:55 AM 68.0 °F - 60.8 °F 78% 30.01 in 6.2 mi South 8.1 mph - N/A   Scattered Clouds
2:25 AM 68.0 °F - 60.8 °F 78% 30.01 in 6.2 mi South 6.9 mph - N/A   Unknown
2:55 AM 66.2 °F - 60.8 °F 83% 30.01 in 6.2 mi South 8.1 mph - N/A   Unknown
3:25 AM 68.0 °F - 62.6 °F 83% 30.01 in 6.2 mi South 8.1 mph - N/A   Overcast
3:55 AM 66.2 °F - 60.8 °F 83% 30.01 in 6.2 mi South 6.9 mph - N/A   Overcast
4:25 AM 66.2 °F - 60.8 °F 83% 29.98 in 6.2 mi South 6.9 mph - N/A   Overcast
4:55 AM 66.2 °F - 60.8 °F 83% 29.98 in 6.2 mi South 8.1 mph - N/A   Overcast
5:25 AM 66.2 °F - 60.8 °F 83% 29.98 in 6.2 mi South 8.1 mph - N/A   Unknown
5:55 AM 64.4 °F - 60.8 °F 88% 29.98 in 6.2 mi South 6.9 mph - N/A   Unknown
6:25 AM 64.4 °F - 60.8 °F 88% 29.98 in 6.2 mi South 6.9 mph - N/A   Unknown
6:55 AM 66.2 °F - 60.8 °F 83% 29.98 in 6.2 mi South 6.9 mph - N/A   Unknown
7:25 AM 66.2 °F - 60.8 °F 83% 29.98 in 6.2 mi South 6.9 mph - N/A   Unknown
7:55 AM 68.0 °F - 62.6 °F 83% 29.98 in 6.2 mi South 8.1 mph - N/A   Partly Cloudy
8:25 AM 69.8 °F - 62.6 °F 78% 29.98 in 6.2 mi South 8.1 mph - N/A   Unknown
8:27 AM 69.8 °F - 62.6 °F 78% 29.98 in 6.2 mi South 6.9 mph - N/A   Unknown
8:55 AM 71.6 °F - 62.6 °F 73% 29.98 in 6.2 mi South 8.1 mph - N/A   Unknown
9:25 AM 73.4 °F - 62.6 °F 69% 29.98 in 6.2 mi South 5.8 mph - N/A   Unknown
9:55 AM 75.2 °F - 62.6 °F 65% 29.98 in 6.2 mi South 9.2 mph - N/A   Unknown
10:25 AM 77.0 °F - 64.4 °F 65% 29.98 in 6.2 mi South 4.6 mph - N/A   Unknown
10:55 AM 78.8 °F - 64.4 °F 61% 29.95 in 6.2 mi SSE 6.9 mph - N/A   Unknown
11:25 AM 80.6 °F 82.7 °F 66.2 °F 61% 29.95 in 6.2 mi SSW 5.8 mph - N/A   Unknown
11:55 AM 82.4 °F 83.9 °F 64.4 °F 54% 29.95 in 6.2 mi South 6.9 mph - N/A   Unknown
12:25 PM 84.2 °F 86.6 °F 66.2 °F 55% 29.95 in 6.2 mi South 9.2 mph - N/A   Unknown
12:55 PM 84.2 °F 85.6 °F 64.4 °F 51% 29.95 in 6.2 mi South 8.1 mph - N/A   Unknown
1:25 PM 84.2 °F 85.6 °F 64.4 °F 51% 29.95 in 6.2 mi South 9.2 mph - N/A   Mostly Cloudy
1:55 PM 86.0 °F 88.2 °F 66.2 °F 51% 29.95 in 6.2 mi South 9.2 mph - N/A   Partly Cloudy
2:25 PM 86.0 °F 87.3 °F 64.4 °F 48% 29.92 in 6.2 mi South 9.2 mph - N/A   Unknown
2:55 PM 86.0 °F 87.3 °F 64.4 °F 48% 29.92 in 6.2 mi SSE 9.2 mph - N/A   Partly Cloudy
3:25 PM 87.8 °F 88.5 °F 62.6 °F 43% 29.92 in 6.2 mi South 11.5 mph - N/A   Unknown
3:55 PM 87.8 °F 88.5 °F 62.6 °F 43% 29.89 in 6.2 mi SSW 11.5 mph - N/A   Partly Cloudy
4:25 PM 87.8 °F 87.6 °F 60.8 °F 40% 29.89 in 6.2 mi South 12.7 mph - N/A   Unknown
4:36 PM 87.8 °F 88.5 °F 62.6 °F 43% 29.89 in 6.2 mi SSE 11.5 mph - N/A   Unknown
4:55 PM 89.6 °F 89.5 °F 60.8 °F 38% 29.89 in 6.2 mi South 11.5 mph - N/A   Unknown
5:25 PM 89.6 °F 89.5 °F 60.8 °F 38% 29.89 in 6.2 mi South 10.4 mph - N/A   Partly Cloudy
5:55 PM 89.6 °F 89.5 °F 60.8 °F 38% 29.89 in 6.2 mi SSE 10.4 mph - N/A   Unknown
6:25 PM 89.6 °F 88.9 °F 59.0 °F 36% 29.89 in 6.2 mi SSE 9.2 mph - N/A   Unknown
6:55 PM 89.6 °F 89.5 °F 60.8 °F 38% 29.86 in 6.2 mi SE 8.1 mph - N/A   Partly Cloudy
7:25 PM 87.8 °F 87.6 °F 60.8 °F 40% 29.86 in 6.2 mi SSE 8.1 mph - N/A   Unknown
7:55 PM 87.8 °F 87.6 °F 60.8 °F 40% 29.86 in 6.2 mi SSE 6.9 mph - N/A   Unknown
8:25 PM 86.0 °F 86.1 °F 60.8 °F 43% 29.86 in 6.2 mi SSE 5.8 mph - N/A   Partly Cloudy
8:55 PM 82.4 °F 82.9 °F 60.8 °F 48% 29.86 in 6.2 mi SE 5.8 mph - N/A   Unknown
9:25 PM 78.8 °F - 60.8 °F 54% 29.86 in 6.2 mi SE 5.8 mph - N/A   Unknown
9:55 PM 78.8 °F - 60.8 °F 54% 29.86 in 6.2 mi SE 6.9 mph - N/A   Unknown
10:25 PM 78.8 °F - 60.8 °F 54% 29.86 in 6.2 mi SE 6.9 mph - N/A   Unknown
10:55 PM 77.0 °F - 60.8 °F 57% 29.86 in 6.2 mi SE 6.9 mph - N/A   Unknown
11:25 PM 75.2 °F - 60.8 °F 61% 29.86 in 6.2 mi SE 6.9 mph - N/A   Unknown
11:55 PM 75.2 °F - 60.8 °F 61% 29.86 in 6.2 mi SE 6.9 mph - N/A   Unknown